Theta_e
341 340 340 337 333 330 328 325 322 321 322 320 321 321 320 318 318 318 316 316 315 314 314 314 314 314 313 314 314 314 313 314 315 315 314 313 312 313 312 308 306 306 307
340 339 337 336 332 327 324 323 324 321 321 321 321 321 320 320 319 318 317 315 314 314 313 314 313 313 314 314 314 314 314 316 315 314 313 311 310 307 307 308 307 306 306
341 338 338 336 334 331 329 327 324 322 322 323 320 321 322 320 319 318 317 315 315 315 314 314 314 313 313 313 314 314 314 316 314 313 311 307 306 306 307 306 308 306 306
338 339 336 336 334 332 330 329 326 323 322 322 322 322 321 320 318 317 315 315 314 312 310 313 313 313 313 313 314 314 313 313 313 310 307 306 306 306 305 306 306 307 306
336 338 338 336 336 335 333 329 325 324 323 323 323 322 320 319 318 317 314 312 309 309 311 310 313 313 313 312 312 311 312 312 310 308 305 306 306 306 306 306 306 306 306
335 336 337 337 336 335 332 329 327 326 322 322 322 321 319 319 318 316 313 310 307 310 312 312 311 312 313 312 311 308 307 305 305 304 305 306 307 305 306 306 306 307 307
330 332 334 334 335 334 333 331 329 325 324 323 321 320 319 319 317 315 313 310 309 308 309 312 312 312 312 313 313 310 305 308 303 304 305 307 305 304 305 305 305 306 306
326 328 331 333 334 333 331 330 328 328 328 322 320 321 320 319 318 314 311 310 308 308 310 310 311 312 311 313 312 310 310 309 307 306 308 306 304 304 304 304 304 304 305
322 323 325 327 329 331 331 329 329 328 325 321 322 321 321 321 317 312 311 310 309 311 311 312 311 312 313 313 312 311 309 310 306 306 306 304 303 303 303 303 304 305 304
321 320 322 324 326 328 330 330 329 328 326 324 320 319 318 318 315 312 311 309 311 311 312 312 313 312 313 312 311 309 309 307 307 306 305 305 305 305 304 303 304 304 304
321 321 321 322 323 324 327 328 328 327 324 323 319 318 317 316 313 312 312 311 312 313 312 313 313 312 313 311 309 307 306 305 307 304 304 305 305 304 304 303 304 303 303
317 319 321 321 321 322 324 326 326 328 324 321 319 316 314 314 314 313 312 312 313 313 313 311 312 310 312 306 305 303 302 302 302 303 304 305 305 304 303 304 304 304 303
315 315 316 319 320 320 323 323 325 327 324 320 317 315 314 313 313 313 312 311 312 310 309 312 308 308 305 300 300 301 302 303 303 304 305 305 305 304 304 304 302 302 302
314 314 315 316 318 320 319 321 320 323 323 319 316 315 313 313 313 312 310 309 307 308 309 310 306 302 302 303 305 304 303 303 305 305 305 305 304 304 303 303 302 302 302
316 314 314 313 314 313 317 322 322 321 320 319 316 315 314 314 312 310 311 312 310 309 309 311 306 306 306 306 306 306 306 306 306 305 305 305 304 304 303 303 303 302 301
315 315 313 312 311 311 312 318 320 320 318 317 316 315 314 313 311 311 312 311 311 310 308 306 307 307 306 307 306 305 304 303 303 304 304 303 303 302 302 302 301 300 300
312 313 311 311 311 310 311 313 322 320 317 316 315 315 315 311 312 312 310 310 310 306 302 304 306 307 306 305 304 304 303 302 302 302 303 302 302 302 300 300 299 299 299
311 311 310 310 310 309 311 314 321 320 316 314 315 314 312 312 313 311 310 308 301 300 303 305 306 305 305 304 303 302 302 302 302 302 302 301 300 299 299 298 298 298 298
311 310 310 310 309 309 311 316 318 320 315 313 313 313 313 312 309 309 306 302 304 306 306 306 304 304 303 302 301 301 302 302 302 301 301 299 298 297 298 298 298 298 297
311 311 310 309 309 308 309 318 317 319 314 312 310 311 310 304 301 299 299 302 305 305 304 303 303 302 302 301 301 302 302 301 301 300 298 297 297 298 297 297 297 297 297
311 311 311 309 309 310 316 317 318 313 309 308 308 309 305 304 302 302 304 306 305 303 302 302 301 301 301 302 302 301 300 300 298 297 297 297 297 295 294 294 295 296 297
311 311 310 310 310 314 317 317 313 309 307 305 303 303 306 302 304 307 306 305 303 301 301 300 300 301 302 301 300 300 299 298 298 297 296 296 294 293 292 293 294 295 296
311 311 310 310 314 315 315 310 306 305 304 303 304 304 304 306 306 306 305 303 301 301 300 300 301 302 301 300 299 299 298 297 295 294 295 293 292 292 292 293 294 295 296
311 311 311 314 317 315 311 308 305 305 306 306 304 304 305 306 306 305 303 301 301 300 300 301 301 300 300 300 299 297 293 292 293 294 293 292 293 293 294 294 295 296 297
311 311 312 315 316 315 311 308 307 308 308 307 306 304 305 305 304 303 301 300 300 299 301 301 300 300 299 299 297 294 291 290 292 291 292 293 294 295 296 296 297 298 298
312 314 312 316 316 314 311 309 309 309 306 305 306 306 304 304 304 302 300 300 299 301 300 301 300 299 298 296 293 291 290 292 291 292 292 294 295 296 297 297 298 298 299
Wind_Speed
6 7 8 9 11 16 19 21 23 21 14 13 16 16 16 15 14 12 9 7 9 8 9 12 10 11 13 15 13 12 13 7 9 17 20 20 20 14 10 11 17 19 11
6 7 8 9 9 12 13 20 22 23 20 20 18 18 17 17 15 15 14 13 13 15 14 11 14 14 13 13 14 15 13 12 17 18 16 20 14 11 13 11 10 14 15
3 5 7 9 10 11 12 14 19 25 22 22 21 23 22 19 18 16 17 13 17 11 9 11 15 16 15 15 15 14 17 17 17 16 19 18 17 16 10 14 8 9 12
3 7 6 7 9 10 12 13 16 23 25 24 26 26 22 20 20 22 15 17 11 12 12 15 15 17 16 14 12 11 16 13 18 17 20 17 18 14 17 17 15 17 15
5 4 5 8 9 10 10 12 14 18 23 24 25 26 22 25 24 20 21 21 16 16 10 14 15 17 19 17 19 15 15 17 16 18 16 18 17 18 17 17 18 16 17
5 4 4 7 5 7 10 13 14 15 20 21 23 25 29 25 22 26 25 20 21 16 13 13 18 19 19 23 16 12 11 8 11 15 16 16 13 18 17 19 20 15 14
6 4 3 5 7 7 9 10 14 16 16 19 24 25 24 24 25 26 23 21 18 18 16 15 17 15 8 11 8 9 10 16 13 8 10 12 18 20 21 19 18 17 17
7 8 6 5 5 6 6 8 11 13 14 20 22 22 23 23 25 25 22 18 18 17 18 20 18 22 21 13 11 10 14 15 18 12 10 12 14 13 11 14 20 20 18
9 8 8 7 5 7 8 9 10 9 11 16 19 20 20 19 25 26 23 20 19 17 18 19 20 22 18 15 14 14 14 16 9 11 13 13 11 12 12 11 14 14 16
8 9 9 9 9 9 9 9 11 10 11 11 15 22 23 27 24 26 21 22 16 16 17 17 17 18 16 14 14 13 14 14 8 7 13 14 13 13 14 12 10 12 15
10 9 9 10 10 11 10 11 11 12 12 11 13 16 21 26 26 26 23 24 17 14 15 16 11 14 16 17 15 13 13 11 13 15 18 16 9 12 13 10 11 8 16
10 12 11 10 11 9 10 12 13 10 11 14 14 16 20 25 24 25 23 22 14 11 12 15 15 2 13 15 14 14 13 13 13 17 14 15 14 17 7 7 9 11 13
12 13 14 14 13 11 12 13 11 10 10 13 13 14 17 22 22 21 23 21 19 17 13 13 8 6 9 11 12 14 14 13 15 15 11 18 14 15 8 11 12 14 17
15 14 13 16 16 11 13 10 12 14 11 13 13 14 16 19 20 20 19 18 16 16 14 14 10 9 10 13 12 12 17 17 16 14 15 14 13 15 16 14 13 15 16
15 15 15 19 14 17 16 6 4 8 12 12 14 17 18 17 23 21 17 14 9 12 16 12 13 13 16 18 18 17 19 23 16 18 10 11 15 18 14 13 13 16 16
17 18 19 16 21 21 19 9 4 11 11 8 12 16 19 20 16 17 11 10 8 9 10 13 14 15 15 12 10 11 12 11 10 6 11 11 12 13 13 15 15 15 16
19 19 21 22 21 21 22 22 4 6 9 5 12 18 20 14 10 14 12 11 11 11 11 12 15 13 11 10 11 11 11 9 10 12 10 13 14 14 14 15 15 14 15
21 22 21 23 24 23 21 19 1 5 2 8 16 16 17 7 11 11 10 10 9 12 12 14 13 9 9 9 9 10 10 10 9 10 14 15 14 14 15 16 16 16 14
23 25 22 23 24 22 22 13 4 3 5 15 19 17 14 10 9 11 11 9 10 17 15 12 7 8 9 8 9 9 9 8 8 12 14 14 14 15 14 14 14 14 13
24 26 22 22 24 20 23 9 1 4 10 17 16 17 14 14 12 12 11 9 12 8 5 6 7 6 8 8 8 9 9 10 12 12 13 13 12 10 11 12 11 11 10
21 22 20 23 22 17 5 6 3 6 10 14 20 21 21 13 12 11 11 13 5 4 4 5 7 6 7 7 9 11 12 12 12 12 12 11 10 10 10 9 9 8 7
20 22 22 24 5 19 2 3 2 7 13 20 25 21 20 8 4 8 5 1 2 1 3 4 6 5 6 7 10 10 11 11 10 11 11 9 8 8 6 6 7 6 5
20 20 21 26 1 8 9 7 8 13 17 18 19 21 13 5 1 4 3 2 1 1 2 3 4 6 8 8 9 10 10 9 9 11 6 7 5 5 5 5 6 5 5
20 19 22 2 6 6 10 13 15 19 21 23 20 13 7 5 6 4 3 1 1 2 1 3 4 6 6 8 8 9 9 9 6 5 5 2 2 5 5 4 4 4 3
19 21 12 7 9 11 18 17 19 18 16 14 14 13 11 7 6 4 2 2 2 1 3 3 4 6 7 6 5 8 11 8 6 5 3 2 3 4 3 4 4 6 4
17 4 15 10 11 16 20 19 17 12 12 13 12 10 10 11 5 3 3 2 2 3 2 4 4 6 7 6 10 10 7 8 6 6 5 2 4 6 7 6 5 6 6
Wind_Direction
233 230 221 219 220 228 237 230 212 209 215 204 210 209 205 203 205 204 195 235 207 224 255 271 256 267 279 294 314 309 305 2 301 300 320 314 300 293 303 313 320 318 333
218 223 222 214 217 218 220 221 223 212 213 215 212 215 215 213 210 212 211 208 225 218 226 244 267 277 279 258 273 301 317 320 312 297 308 308 315 329 316 310 314 311 311
174 223 231 214 216 219 218 213 210 210 217 215 216 218 220 217 211 212 218 222 231 242 246 252 260 270 274 276 289 306 305 306 300 298 300 319 314 298 323 310 318 317 301
259 193 233 232 224 224 219 216 214 217 218 222 222 227 222 220 214 210 217 220 216 226 232 274 268 275 277 279 295 301 303 297 298 315 315 312 310 346 336 337 326 316 323
298 291 211 246 233 224 219 223 222 222 224 222 227 227 222 223 214 213 209 209 216 213 259 271 271 265 271 282 284 284 298 300 316 317 318 316 344 346 331 324 317 308 311
355 315 293 245 244 229 221 224 223 224 228 229 228 225 223 222 220 218 211 210 205 208 239 256 265 266 257 261 262 259 287 306 311 320 314 331 334 331 332 324 312 319 312
9 34 339 275 262 259 243 234 234 231 231 225 222 227 224 227 223 214 213 203 210 215 244 269 277 269 281 254 239 272 256 280 256 265 283 304 328 327 322 315 318 313 305
25 23 18 347 300 281 281 265 252 244 231 234 238 232 233 223 221 209 200 208 207 213 241 260 264 266 273 259 239 253 269 254 240 236 255 300 308 313 308 309 305 298 299
20 15 360 351 337 313 280 270 265 251 253 247 241 236 232 221 204 196 194 209 209 229 239 261 270 277 272 248 237 250 262 268 238 236 274 275 285 296 302 303 310 318 313
354 357 347 348 338 330 318 306 284 243 262 258 249 244 228 222 204 195 201 205 216 233 255 276 272 278 273 259 239 242 269 287 305 247 244 288 282 284 280 268 299 309 307
319 335 336 338 335 329 322 307 296 275 261 257 253 241 228 217 205 203 208 206 218 235 252 264 287 308 270 257 242 246 269 301 300 301 281 271 274 274 263 262 270 304 302
329 321 321 323 321 325 320 313 303 275 264 255 246 237 227 213 218 207 204 213 220 246 267 290 306 273 234 237 243 248 256 275 283 279 279 284 305 304 294 274 289 293 275
307 306 310 310 311 321 312 307 317 291 269 249 231 219 209 207 215 207 203 217 229 246 270 290 296 208 225 246 245 237 241 245 263 270 280 280 294 289 310 294 293 289 283
291 291 299 302 295 292 312 305 331 317 284 252 221 203 196 193 198 185 194 214 237 246 265 264 250 248 238 249 247 252 239 253 258 276 270 278 303 306 298 294 289 298 289
276 280 287 286 299 309 292 283 286 317 288 264 232 202 182 177 181 195 198 213 223 254 258 247 228 240 243 243 236 243 238 227 238 247 271 279 287 281 298 300 297 286 297
270 272 278 300 294 297 295 276 348 318 314 269 239 206 182 180 191 194 223 220 249 229 236 258 266 266 279 287 306 308 300 305 302 319 296 297 300 312 305 298 300 299 304
277 276 275 276 284 295 287 282 288 301 329 246 205 187 177 170 186 206 210 229 240 227 241 265 265 275 296 312 305 307 309 310 325 304 316 306 297 294 308 306 302 299 300
276 280 279 276 279 286 279 271 87 312 233 189 175 169 178 181 193 195 207 182 203 217 252 259 276 309 312 309 311 309 311 305 329 321 313 308 307 310 311 309 312 315 315
282 282 287 295 291 292 291 267 319 302 217 196 176 177 183 185 171 176 178 188 227 240 235 257 319 316 310 311 300 307 314 318 309 303 294 313 320 317 323 322 315 315 317
280 274 267 276 275 272 275 230 112 237 197 194 167 165 155 153 159 170 189 221 251 276 326 314 306 319 307 304 321 308 316 326 313 318 325 318 325 337 332 317 314 315 318
283 279 275 274 265 261 328 283 138 188 168 157 157 167 157 162 169 186 208 227 253 321 330 318 299 325 321 335 332 337 330 320 329 329 328 345 341 329 321 316 309 308 341
286 284 279 274 287 292 193 80 150 182 160 148 151 159 153 185 229 228 220 108 324 346 329 317 321 357 345 352 340 325 324 332 337 337 336 338 332 331 334 329 326 339 354
271 266 265 263 235 131 109 112 135 134 123 127 133 137 141 151 236 215 166 142 1 307 16 354 341 10 7 347 333 336 351 357 339 331 346 334 345 357 354 344 337 340 344
265 262 259 147 141 105 116 126 128 130 120 115 125 146 160 171 213 144 165 163 150 78 36 43 37 23 358 342 345 8 5 341 349 343 343 3 21 356 345 355 337 333 320
248 253 243 171 144 140 134 131 137 130 133 147 155 170 191 193 166 170 164 123 98 100 81 39 37 5 352 359 23 2 339 353 4 49 66 59 20 360 338 309 329 312 327
252 146 178 181 144 142 141 144 143 155 153 168 174 148 155 195 157 146 119 123 133 99 51 36 20 355 353 45 351 345 356 13 32 57 94 30 334 323 317 318 327 321 309